Location: Cedar Springs
(43.2230°N, 85.5510°W)
Time: 07:08:51
(UTC-04:00)

Cosmos 2278 Rocket - Visible Passes

Search period start: 06 May 2016 00:00
Search period end: 16 May 2016 00:00
Orbit: 841 x 846 km, 71.0° (Epoch: 05 May)

Date Brightness Start Highest point End Pass type
(mag) Time Alt. Az. Time Alt. Az. Time Alt. Az.
06 May 2.4 01:13:54 10° NNW 01:18:52 68° NW 01:18:52 68° NW visible
06 May 4.2 23:16:27 10° N 23:20:14 18° NE 23:22:44 14° ENE visible
07 May 2.2 00:59:21 10° NNW 01:04:34 75° NW 01:04:34 75° NW visible
07 May 4.6 02:46:23 10° WNW 02:46:25 10° WNW 02:46:25 10° WNW visible
07 May 4.2 23:01:59 10° N 23:05:39 17° NE 23:08:28 12° E visible
08 May 2.1 00:44:50 10° NNW 00:50:19 83° NW 00:50:19 83° NW visible
08 May 4.5 02:31:34 10° WNW 02:32:09 11° W 02:32:09 11° W visible
08 May 4.2 22:47:32 10° N 22:51:05 17° NE 22:54:14 11° E visible
09 May 2.1 00:30:18 10° NNW 00:36:01 88° ENE 00:36:04 88° ESE visible
09 May 4.4 02:16:49 10° WNW 02:17:55 12° W 02:17:55 12° W visible
09 May 4.2 22:33:04 10° N 22:36:31 16° NE 22:39:58 10° E visible
10 May 2.0 00:15:46 10° NNW 00:21:30 85° ENE 00:21:52 78° SE visible
10 May 4.4 02:02:04 10° WNW 02:03:42 13° W 02:03:42 13° W visible
10 May 4.2 22:18:37 10° N 22:21:57 16° NE 22:25:16 10° E visible
11 May 2.1 00:01:15 10° NNW 00:06:58 82° ENE 00:07:41 68° SE visible
11 May 4.3 01:47:22 10° WNW 01:49:32 14° W 01:49:32 14° W visible
11 May 4.3 22:04:10 10° N 22:07:22 15° NE 22:10:34 10° ENE visible
11 May 2.1 23:46:43 10° NNW 23:52:26 79° ENE 23:53:31 59° SE visible
12 May 4.3 01:32:41 10° WNW 01:35:22 15° W 01:35:22 15° W visible
12 May 4.3 21:49:44 10° N 21:52:48 15° NE 21:55:51 10° ENE visible
12 May 2.2 23:32:11 10° NNW 23:37:54 76° ENE 23:39:24 50° SE visible
13 May 4.2 01:18:01 10° WNW 01:21:15 16° W 01:21:15 16° W visible
13 May 4.3 21:35:18 10° NNE 21:38:13 14° NE 21:41:08 10° ENE visible
13 May 2.2 23:17:40 10° NNW 23:23:22 73° ENE 23:25:18 42° SE visible
14 May 4.1 01:03:21 10° WNW 01:06:45 16° W 01:07:09 16° WSW visible
14 May 2.2 23:03:08 10° NNW 23:08:49 70° ENE 23:11:14 35° SE visible
15 May 4.1 00:48:41 10° WNW 00:52:15 17° W 00:53:05 17° WSW visible
15 May 2.3 22:48:37 10° NNW 22:54:17 67° ENE 22:57:12 29° SE visible
